Time,TemperatureF,DewpointF,PressureIn,WindDirection,WindDirectionDegrees,WindSpeedMPH,WindSpeedGustMPH,Humidity,HourlyPrecipIn,Conditions,Clouds,dailyrainin,SolarRadiationWatts/m^2,SoftwareType,DateUTC
2013-02-22 00:01:00,32.0,31.0,-100.00,South,191,5.0,9.0,96,0.00,,,0.00,0.000000,,2013-02-22 06:01:00,
2013-02-22 00:12:00,32.0,31.0,-100.00,South,191,5.0,9.0,96,0.00,,,0.00,0.000000,,2013-02-22 06:12:00,
2013-02-22 00:32:00,32.0,31.0,-100.00,SSW,212,6.0,10.0,95,0.00,,,0.00,0.000000,,2013-02-22 06:32:00,
2013-02-22 00:42:00,32.0,31.0,-100.00,SSW,212,6.0,10.0,95,0.00,,,0.00,0.000000,,2013-02-22 06:42:00,
2013-02-22 00:52:00,32.0,31.0,-100.00,SSW,212,6.0,10.0,95,0.00,,,0.00,0.000000,,2013-02-22 06:52:00,
2013-02-22 01:01:00,32.0,31.0,-100.00,SSW,212,6.0,10.0,95,0.00,,,0.00,0.000000,,2013-02-22 07:01:00,
2013-02-22 01:11:00,32.0,31.0,-100.00,SSW,212,6.0,10.0,95,0.00,,,0.00,0.000000,,2013-02-22 07:11:00,
2013-02-22 01:42:00,33.0,32.0,-100.00,SW,236,10.0,17.0,95,0.00,,,0.00,0.000000,,2013-02-22 07:42:00,
2013-02-22 01:52:00,33.0,32.0,-100.00,SW,236,10.0,17.0,95,0.00,,,0.00,0.000000,,2013-02-22 07:52:00,
2013-02-22 02:01:00,33.0,32.0,-100.00,SW,236,10.0,17.0,95,0.00,,,0.00,0.000000,,2013-02-22 08:01:00,
2013-02-22 02:11:00,33.0,32.0,-100.00,SW,236,10.0,17.0,95,0.00,,,0.00,0.000000,,2013-02-22 08:11:00,
2013-02-22 02:32:00,33.0,30.0,-100.00,WSW,246,10.0,21.0,87,0.00,,,0.00,0.000000,,2013-02-22 08:32:00,
2013-02-22 02:42:00,33.0,30.0,-100.00,WSW,246,10.0,21.0,87,0.00,,,0.00,0.000000,,2013-02-22 08:42:00,
2013-02-22 02:52:00,33.0,30.0,-100.00,WSW,246,10.0,21.0,87,0.00,,,0.00,0.000000,,2013-02-22 08:52:00,
2013-02-22 03:03:00,33.0,30.0,-100.00,WSW,246,10.0,21.0,87,0.00,,,0.00,0.000000,,2013-02-22 09:03:00,
2013-02-22 03:11:00,33.0,30.0,-100.00,WSW,246,10.0,21.0,87,0.00,,,0.00,0.000000,,2013-02-22 09:11:00,
2013-02-22 03:32:00,33.0,30.0,-100.00,WSW,245,10.0,17.0,89,0.00,,,0.00,0.000000,,2013-02-22 09:32:00,
2013-02-22 03:42:00,33.0,30.0,-100.00,WSW,245,10.0,17.0,89,0.00,,,0.00,0.000000,,2013-02-22 09:42:00,
2013-02-22 03:52:00,33.0,30.0,-100.00,WSW,245,10.0,17.0,89,0.00,,,0.00,0.000000,,2013-02-22 09:52:00,
2013-02-22 04:01:00,33.0,30.0,-100.00,WSW,245,10.0,17.0,89,0.00,,,0.00,0.000000,,2013-02-22 10:01:00,
2013-02-22 04:11:00,33.0,30.0,-100.00,WSW,245,10.0,17.0,89,0.00,,,0.00,0.000000,,2013-02-22 10:11:00,
2013-02-22 04:42:00,30.0,25.0,-100.00,WSW,249,13.0,24.0,81,0.00,,,0.00,0.000000,,2013-02-22 10:42:00,
2013-02-22 04:52:00,30.0,25.0,-100.00,WSW,249,13.0,24.0,81,0.00,,,0.00,0.000000,,2013-02-22 10:52:00,
2013-02-22 05:01:00,30.0,25.0,-100.00,WSW,249,13.0,24.0,81,0.00,,,0.00,0.000000,,2013-02-22 11:01:00,
2013-02-22 05:11:00,30.0,25.0,-100.00,WSW,249,13.0,24.0,81,0.00,,,0.00,0.000000,,2013-02-22 11:11:00,
2013-02-22 05:32:00,26.0,22.0,-100.00,WSW,257,9.0,22.0,83,0.00,,,0.00,0.000000,,2013-02-22 11:32:00,
2013-02-22 05:42:00,26.0,22.0,-100.00,WSW,257,9.0,22.0,83,0.00,,,0.00,0.000000,,2013-02-22 11:42:00,
2013-02-22 05:52:00,26.0,22.0,-100.00,WSW,257,9.0,22.0,83,0.00,,,0.00,0.000000,,2013-02-22 11:52:00,
2013-02-22 06:02:00,26.0,22.0,-100.00,WSW,257,9.0,22.0,83,0.00,,,0.00,0.000000,,2013-02-22 12:02:00,
2013-02-22 06:11:00,26.0,22.0,-100.00,WSW,257,9.0,22.0,83,0.00,,,0.00,0.000000,,2013-02-22 12:11:00,
2013-02-22 06:32:00,25.0,21.0,-100.00,WSW,250,11.0,19.0,86,0.00,,,0.00,0.000000,,2013-02-22 12:32:00,
2013-02-22 06:42:00,25.0,21.0,-100.00,WSW,250,11.0,19.0,86,0.00,,,0.00,0.000000,,2013-02-22 12:42:00,
2013-02-22 06:52:00,25.0,21.0,-100.00,WSW,250,11.0,19.0,86,0.00,,,0.00,0.000000,,2013-02-22 12:52:00,
2013-02-22 07:02:00,25.0,21.0,-100.00,WSW,250,11.0,19.0,86,0.00,,,0.00,0.000000,,2013-02-22 13:02:00,
2013-02-22 07:11:00,25.0,21.0,-100.00,WSW,250,11.0,19.0,86,0.00,,,0.00,0.000000,,2013-02-22 13:11:00,
2013-02-22 07:42:00,24.0,22.0,-100.00,WSW,249,10.0,18.0,90,0.00,,,-99.99,1.000000,,2013-02-22 13:42:00,
2013-02-22 07:52:00,24.0,22.0,-100.00,WSW,249,10.0,18.0,90,0.00,,,-99.99,1.000000,,2013-02-22 13:52:00,
2013-02-22 08:01:00,24.0,22.0,-100.00,WSW,249,10.0,18.0,90,0.00,,,-99.99,1.000000,,2013-02-22 14:01:00,
2013-02-22 08:11:00,24.0,22.0,-100.00,WSW,249,10.0,18.0,90,0.00,,,-99.99,1.000000,,2013-02-22 14:11:00,
2013-02-22 08:32:00,25.0,22.0,-100.00,WSW,249,10.0,16.0,87,0.00,,,0.00,17.000000,,2013-02-22 14:32:00,
2013-02-22 08:42:00,25.0,22.0,-100.00,WSW,249,10.0,16.0,87,0.00,,,0.00,17.000000,,2013-02-22 14:42:00,
2013-02-22 08:53:00,25.0,22.0,-100.00,WSW,249,10.0,16.0,87,0.00,,,0.00,17.000000,,2013-02-22 14:53:00,
2013-02-22 09:01:00,25.0,22.0,-100.00,WSW,249,10.0,16.0,87,0.00,,,0.00,17.000000,,2013-02-22 15:01:00,
2013-02-22 09:11:00,25.0,22.0,-100.00,WSW,249,10.0,16.0,87,0.00,,,0.00,17.000000,,2013-02-22 15:11:00,
2013-02-22 09:32:00,25.0,21.0,-100.00,WSW,243,9.0,15.0,84,0.00,,,-99.99,53.000000,,2013-02-22 15:32:00,
2013-02-22 09:42:00,25.0,21.0,-100.00,WSW,243,9.0,15.0,84,0.00,,,-99.99,53.000000,,2013-02-22 15:42:00,
2013-02-22 09:52:00,25.0,21.0,-100.00,WSW,243,9.0,15.0,84,0.00,,,-99.99,53.000000,,2013-02-22 15:52:00,
2013-02-22 10:01:00,25.0,21.0,-100.00,WSW,243,9.0,15.0,84,0.00,,,-99.99,53.000000,,2013-02-22 16:01:00,
2013-02-22 10:12:00,25.0,21.0,-100.00,WSW,243,9.0,15.0,84,0.00,,,-99.99,53.000000,,2013-02-22 16:12:00,
2013-02-22 10:32:00,26.0,21.0,-100.00,WSW,249,10.0,16.0,80,0.00,,,0.00,138.000000,,2013-02-22 16:32:00,
2013-02-22 10:42:00,26.0,21.0,-100.00,WSW,249,10.0,16.0,80,0.00,,,0.00,138.000000,,2013-02-22 16:42:00,
2013-02-22 10:52:00,26.0,21.0,-100.00,WSW,249,10.0,16.0,80,0.00,,,0.00,138.000000,,2013-02-22 16:52:00,
2013-02-22 11:01:00,26.0,21.0,-100.00,WSW,249,10.0,16.0,80,0.00,,,0.00,138.000000,,2013-02-22 17:01:00,
2013-02-22 11:11:00,26.0,21.0,-100.00,WSW,249,10.0,16.0,80,0.00,,,0.00,138.000000,,2013-02-22 17:11:00,
2013-02-22 11:42:00,26.0,20.0,-100.00,WSW,237,11.0,18.0,77,0.00,,,0.00,212.000000,,2013-02-22 17:42:00,
2013-02-22 11:52:00,26.0,20.0,-100.00,WSW,237,11.0,18.0,77,0.00,,,0.00,212.000000,,2013-02-22 17:52:00,
2013-02-22 12:01:00,26.0,20.0,-100.00,WSW,237,11.0,18.0,77,0.00,,,0.00,212.000000,,2013-02-22 18:01:00,
2013-02-22 12:12:00,26.0,20.0,-100.00,WSW,237,11.0,18.0,77,0.00,,,0.00,212.000000,,2013-02-22 18:12:00,
2013-02-22 12:32:00,26.0,19.0,-100.00,WSW,246,11.0,17.0,76,0.00,,,-99.99,252.000000,,2013-02-22 18:32:00,
2013-02-22 12:42:00,26.0,19.0,-100.00,WSW,246,11.0,17.0,76,0.00,,,-99.99,252.000000,,2013-02-22 18:42:00,
2013-02-22 12:52:00,26.0,19.0,-100.00,WSW,246,11.0,17.0,76,0.00,,,-99.99,252.000000,,2013-02-22 18:52:00,
2013-02-22 13:01:00,26.0,19.0,-100.00,WSW,246,11.0,17.0,76,0.00,,,-99.99,252.000000,,2013-02-22 19:01:00,
2013-02-22 13:11:00,26.0,19.0,-100.00,WSW,246,11.0,17.0,76,0.00,,,-99.99,252.000000,,2013-02-22 19:11:00,
2013-02-22 13:31:00,28.0,20.0,-100.00,WSW,255,10.0,17.0,71,0.00,,,0.00,438.000000,,2013-02-22 19:31:00,
2013-02-22 13:42:00,28.0,20.0,-100.00,WSW,255,10.0,17.0,71,0.00,,,0.00,438.000000,,2013-02-22 19:42:00,
2013-02-22 13:52:00,28.0,20.0,-100.00,WSW,255,10.0,17.0,71,0.00,,,0.00,438.000000,,2013-02-22 19:52:00,
2013-02-22 14:01:00,28.0,20.0,-100.00,WSW,255,10.0,17.0,71,0.00,,,0.00,438.000000,,2013-02-22 20:01:00,
2013-02-22 14:11:00,28.0,20.0,-100.00,WSW,255,10.0,17.0,71,0.00,,,0.00,438.000000,,2013-02-22 20:11:00,
2013-02-22 14:42:00,29.0,19.0,-100.00,WSW,248,12.0,19.0,65,0.00,,,0.00,511.000000,,2013-02-22 20:42:00,
2013-02-22 14:52:00,29.0,19.0,-100.00,WSW,248,12.0,19.0,65,0.00,,,0.00,511.000000,,2013-02-22 20:52:00,
2013-02-22 15:01:00,29.0,19.0,-100.00,WSW,248,12.0,19.0,65,0.00,,,0.00,511.000000,,2013-02-22 21:01:00,
2013-02-22 15:11:00,29.0,19.0,-100.00,WSW,248,12.0,19.0,65,0.00,,,0.00,511.000000,,2013-02-22 21:11:00,
2013-02-22 15:42:00,30.0,19.0,-100.00,WSW,255,10.0,20.0,63,0.01,,,0.01,378.000000,,2013-02-22 21:42:00,
2013-02-22 15:52:00,30.0,19.0,-100.00,WSW,255,10.0,20.0,63,0.01,,,0.01,378.000000,,2013-02-22 21:52:00,
2013-02-22 16:01:00,30.0,19.0,-100.00,WSW,255,10.0,20.0,63,0.01,,,0.01,378.000000,,2013-02-22 22:01:00,
2013-02-22 16:11:00,30.0,19.0,-100.00,WSW,255,10.0,20.0,63,0.01,,,0.01,378.000000,,2013-02-22 22:11:00,
2013-02-22 16:42:00,31.0,19.0,-100.00,WSW,245,10.0,18.0,61,0.04,,,0.05,326.000000,,2013-02-22 22:42:00,
2013-02-22 16:52:00,31.0,19.0,-100.00,WSW,245,10.0,18.0,61,0.04,,,0.05,326.000000,,2013-02-22 22:52:00,
2013-02-22 17:01:00,31.0,19.0,-100.00,WSW,245,10.0,18.0,61,0.04,,,0.05,326.000000,,2013-02-22 23:01:00,
2013-02-22 17:11:00,31.0,19.0,-100.00,WSW,245,10.0,18.0,61,0.04,,,0.05,326.000000,,2013-02-22 23:11:00,
2013-02-22 17:42:00,31.0,19.0,-100.00,WSW,248,10.0,16.0,61,0.02,,,0.07,209.000000,,2013-02-22 23:42:00,
2013-02-22 17:52:00,31.0,19.0,-100.00,WSW,248,10.0,16.0,61,0.02,,,0.07,209.000000,,2013-02-22 23:52:00,
2013-02-22 18:01:00,31.0,19.0,-100.00,WSW,248,10.0,16.0,61,0.02,,,0.07,209.000000,,2013-02-23 00:01:00,
2013-02-22 18:11:00,31.0,19.0,-100.00,WSW,248,10.0,16.0,61,0.02,,,0.07,209.000000,,2013-02-23 00:11:00,
2013-02-22 18:32:00,28.0,16.0,-100.00,West,260,7.0,14.0,61,0.00,,,0.07,47.000000,,2013-02-23 00:32:00,
2013-02-22 18:42:00,28.0,16.0,-100.00,West,260,7.0,14.0,61,0.00,,,0.07,47.000000,,2013-02-23 00:42:00,
2013-02-22 18:52:00,28.0,16.0,-100.00,West,260,7.0,14.0,61,0.00,,,0.07,47.000000,,2013-02-23 00:52:00,
2013-02-22 19:01:00,28.0,16.0,-100.00,West,260,7.0,14.0,61,0.00,,,0.07,47.000000,,2013-02-23 01:01:00,
2013-02-22 19:11:00,28.0,16.0,-100.00,West,260,7.0,14.0,61,0.00,,,0.07,47.000000,,2013-02-23 01:11:00,
2013-02-22 19:32:00,27.0,18.0,-100.00,West,267,5.0,10.0,67,0.00,,,0.07,0.000000,,2013-02-23 01:32:00,
2013-02-22 19:42:00,27.0,18.0,-100.00,West,267,5.0,10.0,67,0.00,,,0.07,0.000000,,2013-02-23 01:42:00,
2013-02-22 19:52:00,27.0,18.0,-100.00,West,267,5.0,10.0,67,0.00,,,0.07,0.000000,,2013-02-23 01:52:00,
2013-02-22 20:01:00,27.0,18.0,-100.00,West,267,5.0,10.0,67,0.00,,,0.07,0.000000,,2013-02-23 02:01:00,
2013-02-22 20:11:00,27.0,18.0,-100.00,West,267,5.0,10.0,67,0.00,,,0.07,0.000000,,2013-02-23 02:11:00,
2013-02-22 20:32:00,26.0,18.0,-100.00,West,269,6.0,9.0,70,0.00,,,0.07,0.000000,,2013-02-23 02:32:00,
2013-02-22 20:42:00,26.0,18.0,-100.00,West,269,6.0,9.0,70,0.00,,,0.07,0.000000,,2013-02-23 02:42:00,
2013-02-22 20:52:00,26.0,18.0,-100.00,West,269,6.0,9.0,70,0.00,,,0.07,0.000000,,2013-02-23 02:52:00,
2013-02-22 21:01:00,26.0,18.0,-100.00,West,269,6.0,9.0,70,0.00,,,0.07,0.000000,,2013-02-23 03:01:00,
2013-02-22 21:11:00,26.0,18.0,-100.00,West,269,6.0,9.0,70,0.00,,,0.07,0.000000,,2013-02-23 03:11:00,
2013-02-22 21:32:00,25.0,17.0,-100.00,WSW,252,5.0,9.0,72,0.00,,,0.07,0.000000,,2013-02-23 03:32:00,
2013-02-22 21:42:00,25.0,17.0,-100.00,WSW,252,5.0,9.0,72,0.00,,,0.07,0.000000,,2013-02-23 03:42:00,
2013-02-22 21:52:00,25.0,17.0,-100.00,WSW,252,5.0,9.0,72,0.00,,,0.07,0.000000,,2013-02-23 03:52:00,
2013-02-22 22:01:00,25.0,17.0,-100.00,WSW,252,5.0,9.0,72,0.00,,,0.07,0.000000,,2013-02-23 04:01:00,
2013-02-22 22:11:00,25.0,17.0,-100.00,WSW,252,5.0,9.0,72,0.00,,,0.07,0.000000,,2013-02-23 04:11:00,
2013-02-22 22:32:00,24.0,18.0,-100.00,WSW,238,4.0,5.0,78,0.00,,,0.07,0.000000,,2013-02-23 04:32:00,
2013-02-22 22:42:00,24.0,18.0,-100.00,WSW,238,4.0,5.0,78,0.00,,,0.07,0.000000,,2013-02-23 04:42:00,
2013-02-22 22:52:00,24.0,18.0,-100.00,WSW,238,4.0,5.0,78,0.00,,,0.07,0.000000,,2013-02-23 04:52:00,
2013-02-22 23:02:00,24.0,18.0,-100.00,WSW,238,4.0,5.0,78,0.00,,,0.07,0.000000,,2013-02-23 05:02:00,
2013-02-22 23:12:00,24.0,18.0,-100.00,WSW,238,4.0,5.0,78,0.00,,,0.07,0.000000,,2013-02-23 05:12:00,
2013-02-22 23:42:00,23.0,18.0,-100.00,West,264,5.0,7.0,80,0.00,,,0.07,0.000000,,2013-02-23 05:42:00,
2013-02-22 23:52:00,23.0,18.0,-100.00,West,264,5.0,7.0,80,0.00,,,0.07,0.000000,,2013-02-23 05:52:00,